This is the latest recevied weather packets stored in our database for station/object EA2AFZ-W. If no packets are shown the sender has not sent any weather packets the latest 10 day(s).
| Time | Temp. | Humidity | Pressure | Rain* | Wind** | Luminosity | Snow |
|---|---|---|---|---|---|---|---|
| 1777725963 | 19.44° C | 66% | 1015 hPa | 0 mm | - | - | - |
| 1777724161 | 18.33° C | 71% | 1015 hPa | 0 mm | - | - | - |
| 1777722359 | 18.89° C | 74% | 1016 hPa | 0 mm | - | - | - |
| 1777720555 | 18.89° C | 73% | 1016 hPa | 0 mm | - | - | - |
| 1777718753 | 18.89° C | 63% | 1016 hPa | 0 mm | - | - | - |
| 1777716951 | 18.33° C | 61% | 1016 hPa | 0 mm | - | - | - |
| 1777715148 | 18.89° C | 60% | 1016 hPa | 0 mm | - | - | - |
| 1777713346 | 19.44° C | 56% | 1017 hPa | 0 mm | - | - | - |
| 1777711543 | 18.89° C | 57% | 1016 hPa | 0 mm | - | - | - |
| 1777709740 | 18.33° C | 57% | 1017 hPa | 0 mm | - | - | - |
| 1777707937 | 18.33° C | 57% | 1017 hPa | 0 mm | - | - | - |
| 1777706136 | 18.33° C | 57% | 1016 hPa | 0 mm | - | - | - |
| 1777704333 | 18.33° C | 57% | 1016 hPa | 0 mm | - | - | - |
| 1777702530 | 18.33° C | 56% | 1017 hPa | 0 mm | - | - | - |
| 1777700728 | 18.33° C | 56% | 1017 hPa | 0 mm | - | - | - |
| 1777698924 | 18.33° C | 57% | 1017 hPa | 0 mm | - | - | - |
| 1777697121 | 18.33° C | 59% | 1016 hPa | 0 mm | - | - | - |
| 1777695319 | 18.33° C | 65% | 1017 hPa | 0 mm | - | - | - |
| 1777693518 | 18.33° C | 65% | 1016 hPa | 0 mm | - | - | - |
| 1777691715 | 18.33° C | 65% | 1017 hPa | 0 mm | - | - | - |
| 1777689912 | 17.78° C | 78% | 1016 hPa | 0 mm | - | - | - |
| 1777688109 | 17.78° C | 78% | 1017 hPa | 0 mm | - | - | - |
| 1777686366 | 17.78° C | 78% | 1017 hPa | 0 mm | - | - | - |
| 1777684564 | 17.78° C | 78% | 1017 hPa | 0 mm | - | - | - |
| 1777682761 | 18.33° C | 78% | 1017 hPa | 0 mm | - | - | - |
* Rain latest hour (hover to see other rain measurements)
** Current wind speed in m/s (hover to see current wind gust speed)